^^
Datos históricos de la estación: Murcia-Puente Tocinos
Diario Informe para Junio 16, 2019 Unidades:  Métrico    Inglés   Ambas
Diario Semanal Mensual Anual Configurable
  Máximo: Mínimo: Media:
Temperatura: 25.1 °C 18.2 °C 21.9 °C
Punto de rocio: 16.3 °C 8.7 °C 13 °C
Humedad: 73% 43% 58%
Velocidad viento: 16.1km/h 0.0km/h 7.3km/h
Racha viento: 29.6km/h - -
Viento- - East
Presión: 1018.3 hPa 1015.7 hPa -
Precipitación: 0.0 mm    
Historical Graphs
 
 
Tabla de datos para Junio 16, 2019
Hora Temperatura Punto de rocio Presión Viento Velocidad viento Racha viento Humedad Intensidad lluvia(por hora) Nubes
00:04 22.0 °C 8.8 °C 1016.7 hPa NNE 5.8 km/h 9.3 km/h 43% 0.0 mm CLR
00:09 21.8 °C 9.0 °C 1016.7 hPa NNE 6.4 km/h 11.1 km/h 44% 0.0 mm CLR
00:14 21.7 °C 8.9 °C 1016.7 hPa NNE 6.4 km/h 5.6 km/h 44% 0.0 mm CLR
00:19 21.6 °C 9.2 °C 1016.7 hPa NNE 4.7 km/h 7.4 km/h 45% 0.0 mm CLR
00:24 21.5 °C 9.1 °C 1016.7 hPa NE 4.7 km/h 11.1 km/h 45% 0.0 mm CLR
00:29 21.3 °C 9.2 °C 1016.7 hPa North 6.4 km/h 9.5 km/h 46% 0.0 mm CLR
00:34 21.1 °C 9.3 °C 1016.8 hPa NNE 6.4 km/h 9.3 km/h 47% 0.0 mm CLR
00:39 20.9 °C 9.2 °C 1016.8 hPa NNW 6.9 km/h 7.4 km/h 47% 0.0 mm CLR
00:44 20.8 °C 9.4 °C 1016.8 hPa North 6.9 km/h 11.1 km/h 48% 0.0 mm CLR
00:49 20.7 °C 9.3 °C 1016.8 hPa NW 6.4 km/h 7.4 km/h 48% 0.0 mm CLR
00:54 20.6 °C 9.5 °C 1016.8 hPa NW 6.4 km/h 7.4 km/h 49% 0.0 mm CLR
00:59 20.5 °C 9.4 °C 1016.8 hPa NNW 5.8 km/h 7.4 km/h 49% 0.0 mm CLR
01:04 20.5 °C 9.4 °C 1017.0 hPa NE 5.8 km/h 7.4 km/h 49% 0.0 mm CLR
01:09 20.4 °C 9.6 °C 1017.0 hPa North 4.7 km/h 8.4 km/h 50% 0.0 mm CLR
01:14 20.4 °C 9.9 °C 1017.0 hPa NNE 4.7 km/h 7.6 km/h 51% 0.0 mm CLR
01:19 20.3 °C 10.1 °C 1016.9 hPa NNW 5.0 km/h 5.6 km/h 52% 0.0 mm CLR
01:24 20.3 °C 10.1 °C 1016.9 hPa NNE 5.0 km/h 7.6 km/h 52% 0.0 mm CLR
01:29 20.2 °C 10.3 °C 1016.9 hPa North 4.7 km/h 7.4 km/h 53% 0.0 mm CLR
01:34 20.2 °C 10.6 °C 1016.9 hPa North 4.7 km/h 7.4 km/h 54% 0.0 mm CLR
01:39 20.1 °C 10.5 °C 1016.9 hPa NNE 4.7 km/h 5.8 km/h 54% 0.0 mm CLR
01:44 20.1 °C 10.5 °C 1016.9 hPa NE 4.7 km/h 6.9 km/h 54% 0.0 mm CLR
01:49 20.1 °C 10.5 °C 1017.0 hPa NE 4.7 km/h 5.8 km/h 54% 0.0 mm CLR
01:54 19.9 °C 10.3 °C 1017.0 hPa NE 4.7 km/h 7.4 km/h 54% 0.0 mm CLR
01:59 19.9 °C 9.7 °C 1017.0 hPa NE 4.7 km/h 5.6 km/h 52% 0.0 mm CLR
02:04 19.9 °C 9.4 °C 1016.9 hPa ENE 4.7 km/h 7.4 km/h 51% 0.0 mm CLR
02:09 20.0 °C 9.3 °C 1016.9 hPa NE 5.0 km/h 7.4 km/h 50% 0.0 mm CLR
02:14 20.1 °C 9.7 °C 1016.9 hPa ENE 5.0 km/h 7.4 km/h 51% 0.0 mm CLR
02:19 20.1 °C 9.7 °C 1016.8 hPa NNE 5.0 km/h 7.4 km/h 51% 0.0 mm CLR
02:24 19.9 °C 9.4 °C 1016.8 hPa NNE 5.0 km/h 3.9 km/h 51% 0.0 mm CLR
02:29 19.8 °C 9.4 °C 1016.8 hPa NE 4.7 km/h 6.9 km/h 51% 0.0 mm CLR
02:34 19.7 °C 9.0 °C 1016.6 hPa NE 4.7 km/h 9.3 km/h 50% 0.0 mm CLR
02:39 19.6 °C 9.2 °C 1016.6 hPa ENE 5.8 km/h 7.4 km/h 51% 0.0 mm CLR
02:44 19.5 °C 9.1 °C 1016.6 hPa NNE 5.8 km/h 5.6 km/h 51% 0.0 mm CLR
02:49 19.5 °C 9.4 °C 1016.5 hPa NE 5.8 km/h 5.8 km/h 52% 0.0 mm CLR
02:54 19.5 °C 9.7 °C 1016.5 hPa NNE 3.9 km/h 5.8 km/h 53% 0.0 mm CLR
02:59 19.5 °C 9.9 °C 1016.5 hPa NNE 3.2 km/h 5.6 km/h 54% 0.0 mm CLR
03:04 19.5 °C 10.2 °C 1016.4 hPa NE 3.2 km/h 5.6 km/h 55% 0.0 mm CLR
03:09 19.4 °C 10.4 °C 1016.4 hPa NNE 2.9 km/h 3.7 km/h 56% 0.0 mm CLR
03:14 19.4 °C 10.7 °C 1016.4 hPa NNE 2.9 km/h   57% 0.0 mm CLR
03:19 19.5 °C 10.8 °C 1016.4 hPa Calm     57% 0.0 mm CLR
03:24 19.5 °C 11.0 °C 1016.4 hPa Calm     58% 0.0 mm CLR
03:29 19.5 °C 11.3 °C 1016.4 hPa Calm     59% 0.0 mm CLR
03:34 19.5 °C 10.8 °C 1016.4 hPa Calm     57% 0.0 mm CLR
03:39 19.5 °C 10.5 °C 1016.4 hPa Calm     56% 0.0 mm CLR
03:44 19.5 °C 10.2 °C 1016.4 hPa Calm     55% 0.0 mm CLR
03:49 19.5 °C 10.5 °C 1016.3 hPa Calm     56% 0.0 mm CLR
03:54 19.6 °C 10.3 °C 1016.3 hPa Calm   3.7 km/h 55% 0.0 mm CLR
03:59 19.6 °C 10.1 °C 1016.3 hPa Calm     54% 0.0 mm CLR
04:04 19.6 °C 9.8 °C 1016.2 hPa Calm   5.6 km/h 53% 0.0 mm CLR
04:09 19.7 °C 9.6 °C 1016.2 hPa South 2.9 km/h 3.7 km/h 52% 0.0 mm CLR
04:14 19.7 °C 9.6 °C 1016.2 hPa South 2.9 km/h   52% 0.0 mm CLR
04:19 19.7 °C 10.1 °C 1016.0 hPa Calm     54% 0.0 mm CLR
04:24 19.7 °C 10.4 °C 1016.0 hPa Calm     55% 0.0 mm CLR
04:29 19.6 °C 9.4 °C 1016.0 hPa Calm     52% 0.0 mm CLR
04:34 19.6 °C 9.4 °C 1015.9 hPa Calm   5.6 km/h 52% 0.0 mm CLR
04:39 19.4 °C 9.0 °C 1015.9 hPa SSE 3.2 km/h 7.6 km/h 51% 0.0 mm CLR
04:44 19.2 °C 9.1 °C 1015.9 hPa South 3.2 km/h 7.4 km/h 52% 0.0 mm CLR
04:49 19.1 °C 9.3 °C 1015.8 hPa SSE 5.8 km/h 7.4 km/h 53% 0.0 mm CLR
04:54 19.1 °C 9.6 °C 1015.8 hPa South 5.8 km/h 9.3 km/h 54% 0.0 mm CLR
04:59 19.1 °C 9.6 °C 1015.8 hPa South 5.0 km/h 5.8 km/h 54% 0.0 mm CLR
05:04 19.1 °C 9.8 °C 1015.7 hPa SSW 5.0 km/h 7.4 km/h 55% 0.0 mm CLR
05:09 19.2 °C 9.9 °C 1015.7 hPa SSW 4.7 km/h 7.6 km/h 55% 0.0 mm CLR
05:14 19.2 °C 9.7 °C 1015.7 hPa SSW 4.7 km/h 7.4 km/h 54% 0.0 mm CLR
05:19 19.2 °C 9.7 °C 1015.8 hPa SSW 5.8 km/h 8.4 km/h 54% 0.0 mm CLR
05:24 19.2 °C 9.7 °C 1015.8 hPa South 5.8 km/h 7.4 km/h 54% 0.0 mm CLR
05:29 19.2 °C 9.4 °C 1015.8 hPa SW 5.0 km/h 11.1 km/h 53% 0.0 mm CLR
05:34 19.2 °C 9.4 °C 1015.8 hPa SW 5.0 km/h 8.7 km/h 53% 0.0 mm CLR
05:39 19.2 °C 9.1 °C 1015.8 hPa WSW 5.8 km/h 7.4 km/h 52% 0.0 mm CLR
05:44 19.2 °C 9.1 °C 1015.8 hPa West 5.8 km/h 5.6 km/h 52% 0.0 mm CLR
05:49 19.2 °C 9.1 °C 1016.0 hPa SW 3.9 km/h 3.7 km/h 52% 0.0 mm CLR
05:54 19.2 °C 9.1 °C 1016.0 hPa SSW 3.9 km/h 7.4 km/h 52% 0.0 mm CLR
05:59 19.2 °C 9.1 °C 1016.0 hPa SW 5.8 km/h 9.3 km/h 52% 0.0 mm CLR
06:04 19.2 °C 9.4 °C 1016.2 hPa SSE 5.8 km/h 8.4 km/h 53% 0.0 mm CLR
06:09 18.9 °C 9.4 °C 1016.2 hPa SE 5.8 km/h 7.4 km/h 54% 0.0 mm CLR
06:14 18.8 °C 9.3 °C 1016.2 hPa SE 5.8 km/h 7.4 km/h 54% 0.0 mm CLR
06:19 18.6 °C 9.4 °C 1016.3 hPa SE 4.7 km/h 5.6 km/h 55% 0.0 mm CLR
06:24 18.4 °C 9.2 °C 1016.3 hPa SE 4.7 km/h 7.4 km/h 55% 0.0 mm CLR
06:29 18.2 °C 9.0 °C 1016.3 hPa SE 3.9 km/h 3.7 km/h 55% 0.0 mm CLR
06:34 18.2 °C 9.3 °C 1016.4 hPa SE 3.9 km/h 3.7 km/h 56% 0.0 mm CLR
06:39 18.2 °C 9.3 °C 1016.4 hPa SE 2.9 km/h   56% 0.0 mm CLR
06:44 18.2 °C 9.3 °C 1016.4 hPa SE 2.9 km/h   56% 0.0 mm CLR
06:49 18.3 °C 9.4 °C 1016.6 hPa Calm     56% 0.0 mm CLR
06:54 18.4 °C 9.2 °C 1016.6 hPa Calm   4.7 km/h 55% 0.0 mm CLR
06:59 18.4 °C 9.2 °C 1016.6 hPa WSW 2.3 km/h 3.7 km/h 55% 0.0 mm CLR
07:04 18.4 °C 9.2 °C 1016.9 hPa WNW 2.3 km/h 3.7 km/h 55% 0.0 mm CLR
07:09 18.4 °C 9.2 °C 1016.9 hPa WNW 2.9 km/h 3.9 km/h 55% 0.0 mm CLR
07:14 18.4 °C 9.4 °C 1016.9 hPa WNW 2.9 km/h 1.9 km/h 56% 0.0 mm CLR
07:19 18.5 °C 9.3 °C 1017.0 hPa WNW 2.3 km/h   55% 0.0 mm CLR
07:24 18.6 °C 9.4 °C 1017.0 hPa ESE 2.3 km/h 5.6 km/h 55% 0.0 mm CLR
07:29 18.7 °C 9.4 °C 1017.0 hPa ESE 2.9 km/h 5.6 km/h 55% 0.0 mm CLR
07:34 18.7 °C 9.4 °C 1017.1 hPa ESE 2.9 km/h 5.6 km/h 55% 0.0 mm CLR
07:39 18.7 °C 9.4 °C 1017.1 hPa ESE 2.9 km/h 5.6 km/h 55% 0.0 mm CLR
07:44 18.8 °C 9.6 °C 1017.1 hPa ESE 2.9 km/h 2.9 km/h 55% 0.0 mm CLR
07:49 19.0 °C 9.8 °C 1017.2 hPa ESE 2.3 km/h 3.7 km/h 55% 0.0 mm CLR
07:54 19.1 °C 9.8 °C 1017.2 hPa ESE 2.3 km/h 5.6 km/h 55% 0.0 mm CLR
07:59 19.3 °C 10.1 °C 1017.2 hPa SE 3.2 km/h 7.4 km/h 55% 0.0 mm CLR
08:04 19.3 °C 10.1 °C 1017.4 hPa SW 3.2 km/h 3.7 km/h 55% 0.0 mm CLR
08:09 19.6 °C 9.4 °C 1017.4 hPa WSW 2.3 km/h 5.6 km/h 52% 0.0 mm CLR
08:14 19.8 °C 9.1 °C 1017.4 hPa West 2.3 km/h 7.4 km/h 50% 0.0 mm CLR
08:19 20.0 °C 9.3 °C 1017.6 hPa SW 3.9 km/h 7.4 km/h 50% 0.0 mm CLR
08:24 20.1 °C 9.1 °C 1017.6 hPa SW 3.9 km/h 8.4 km/h 49% 0.0 mm CLR
08:29 20.1 °C 8.7 °C 1017.6 hPa West 4.7 km/h 7.4 km/h 48% 0.0 mm CLR
08:34 20.2 °C 8.8 °C 1017.7 hPa SW 4.7 km/h 4.7 km/h 48% 0.0 mm CLR
08:39 20.3 °C 8.9 °C 1017.7 hPa SW 3.2 km/h 7.6 km/h 48% 0.0 mm CLR
08:44 20.5 °C 8.8 °C 1017.7 hPa WNW 3.2 km/h 5.6 km/h 47% 0.0 mm CLR
08:49 20.7 °C 9.0 °C 1017.8 hPa WNW 2.9 km/h   47% 0.0 mm CLR
08:54 21.1 °C 9.3 °C 1017.8 hPa WNW 2.9 km/h   47% 0.0 mm CLR
08:59 21.4 °C 9.3 °C 1017.8 hPa Calm   1.9 km/h 46% 0.0 mm CLR
09:04 21.6 °C 9.5 °C 1017.9 hPa Calm   3.7 km/h 46% 0.0 mm CLR
09:09 21.9 °C 9.8 °C 1017.9 hPa ENE 2.9 km/h 5.6 km/h 46% 0.0 mm CLR
09:14 22.1 °C 9.6 °C 1017.9 hPa NNE 2.9 km/h 3.9 km/h 45% 0.0 mm CLR
09:19 22.3 °C 9.4 °C 1018.0 hPa NE 2.9 km/h 5.6 km/h 44% 0.0 mm CLR
09:24 22.4 °C 9.6 °C 1018.0 hPa NNE 2.9 km/h 5.6 km/h 44% 0.0 mm CLR
09:29 22.5 °C 9.3 °C 1018.0 hPa SE 2.9 km/h 3.7 km/h 43% 0.0 mm CLR
09:34 22.6 °C 9.4 °C 1018.2 hPa ESE 2.9 km/h 7.4 km/h 43% 0.0 mm CLR
09:39 22.4 °C 9.2 °C 1018.2 hPa SE 3.9 km/h 8.4 km/h 43% 0.0 mm CLR
09:44 22.4 °C 9.2 °C 1018.2 hPa East 3.9 km/h 7.4 km/h 43% 0.0 mm CLR
09:49 22.3 °C 9.4 °C 1018.2 hPa NE 5.0 km/h 9.3 km/h 44% 0.0 mm CLR
09:54 22.2 °C 10.3 °C 1018.2 hPa NE 5.0 km/h 7.4 km/h 47% 0.0 mm CLR
09:59 22.2 °C 11.0 °C 1018.2 hPa ENE 5.8 km/h 7.6 km/h 49% 0.0 mm CLR
10:04 22.2 °C 11.3 °C 1018.3 hPa ENE 5.8 km/h 13.0 km/h 50% 0.0 mm CLR
10:09 22.0 °C 11.1 °C 1018.3 hPa North 7.6 km/h 13.0 km/h 50% 0.0 mm CLR
10:14 21.9 °C 11.3 °C 1018.3 hPa NNE 7.6 km/h 7.4 km/h 51% 0.0 mm CLR
10:19 22.1 °C 11.5 °C 1018.2 hPa East 5.0 km/h 3.7 km/h 51% 0.0 mm CLR
10:24 22.4 °C 11.8 °C 1018.2 hPa NE 5.0 km/h 7.4 km/h 51% 0.0 mm CLR
10:29 22.6 °C 11.9 °C 1018.2 hPa North 5.0 km/h 5.6 km/h 51% 0.0 mm CLR
10:34 22.7 °C 12.3 °C 1018.1 hPa East 5.0 km/h 10.3 km/h 52% 0.0 mm CLR
10:39 22.8 °C 12.4 °C 1018.1 hPa East 6.9 km/h 11.1 km/h 52% 0.0 mm CLR
10:44 22.9 °C 12.8 °C 1018.1 hPa SE 6.9 km/h 10.3 km/h 53% 0.0 mm CLR
10:49 23.1 °C 13.0 °C 1018.2 hPa NE 6.9 km/h 7.4 km/h 53% 0.0 mm CLR
10:54 23.2 °C 13.1 °C 1018.2 hPa NNE 6.9 km/h 8.7 km/h 53% 0.0 mm CLR
10:59 23.2 °C 13.4 °C 1018.2 hPa NE 6.4 km/h 13.0 km/h 54% 0.0 mm CLR
11:04 23.3 °C 13.4 °C 1018.1 hPa NNE 6.4 km/h 7.4 km/h 54% 0.0 mm CLR
11:09 23.4 °C 13.8 °C 1018.1 hPa NE 4.7 km/h 9.5 km/h 55% 0.0 mm CLR
11:14 23.4 °C 14.1 °C 1018.1 hPa NE 4.7 km/h 9.5 km/h 56% 0.0 mm CLR
11:19 23.5 °C 14.2 °C 1018.1 hPa NNW 6.9 km/h 4.7 km/h 56% 0.0 mm CLR
11:24 23.7 °C 14.1 °C 1018.1 hPa North 6.9 km/h 7.4 km/h 55% 0.0 mm CLR
11:29 23.9 °C 14.3 °C 1018.1 hPa SE 3.9 km/h 9.3 km/h 55% 0.0 mm CLR
11:34 24.1 °C 14.2 °C 1017.8 hPa ESE 3.9 km/h 11.1 km/h 54% 0.0 mm CLR
11:39 24.1 °C 14.2 °C 1017.8 hPa NNE 8.4 km/h 24.1 km/h 54% 0.0 mm CLR
11:44 24.2 °C 14.3 °C 1017.8 hPa ENE 8.4 km/h 20.4 km/h 54% 0.0 mm CLR
11:49 24.2 °C 14.0 °C 1017.9 hPa ESE 10.3 km/h 19.0 km/h 53% 0.0 mm CLR
11:54 24.2 °C 14.3 °C 1017.9 hPa East 10.3 km/h 9.3 km/h 54% 0.0 mm CLR
11:59 24.2 °C 15.2 °C 1017.9 hPa East 12.2 km/h 15.6 km/h 57% 0.0 mm CLR
12:04 24.3 °C 15.2 °C 1017.9 hPa East 12.2 km/h 25.9 km/h 57% 0.0 mm CLR
12:09 24.4 °C 15.6 °C 1017.9 hPa ESE 11.9 km/h 20.9 km/h 58% 0.0 mm CLR
12:14 24.2 °C 15.7 °C 1017.9 hPa North 11.9 km/h 25.9 km/h 59% 0.0 mm CLR
12:19 23.9 °C 15.7 °C 1018.0 hPa ENE 14.8 km/h 20.4 km/h 60% 0.0 mm CLR
12:24 23.9 °C 15.9 °C 1018.0 hPa NE 14.8 km/h 14.8 km/h 61% 0.0 mm CLR
12:29 24.1 °C 15.8 °C 1018.0 hPa East 12.2 km/h 27.8 km/h 60% 0.0 mm CLR
12:34 24.0 °C 15.8 °C 1017.9 hPa North 12.2 km/h 24.1 km/h 60% 0.0 mm CLR
12:39 24.2 °C 15.9 °C 1017.9 hPa ENE 15.6 km/h 22.2 km/h 60% 0.0 mm CLR
12:44 24.1 °C 16.1 °C 1017.9 hPa NE 15.6 km/h 18.5 km/h 61% 0.0 mm CLR
12:49 24.3 °C 16.3 °C 1017.7 hPa ENE 14.0 km/h 25.1 km/h 61% 0.0 mm CLR
12:54 24.7 °C 16.2 °C 1017.7 hPa NNE 14.0 km/h 24.1 km/h 59% 0.0 mm CLR
12:59 24.6 °C 16.3 °C 1017.7 hPa NE 14.8 km/h 24.1 km/h 60% 0.0 mm CLR
13:04 24.3 °C 16.1 °C 1017.7 hPa NE 14.8 km/h 17.2 km/h 60% 0.0 mm CLR
13:09 24.2 °C 15.9 °C 1017.7 hPa NNE 16.1 km/h 18.5 km/h 60% 0.0 mm CLR
13:14 24.3 °C 15.8 °C 1017.7 hPa NE 16.1 km/h 22.2 km/h 59% 0.0 mm CLR
13:19 24.4 °C 15.9 °C 1017.7 hPa NE 14.8 km/h 20.4 km/h 59% 0.0 mm CLR
13:24 24.8 °C 16.0 °C 1017.7 hPa East 14.8 km/h 24.1 km/h 58% 0.0 mm CLR
13:29 24.7 °C 15.9 °C 1017.7 hPa NE 14.8 km/h 18.3 km/h 58% 0.0 mm CLR
13:34 24.6 °C 15.8 °C 1017.8 hPa North 14.8 km/h 18.5 km/h 58% 0.0 mm CLR
13:39 24.7 °C 15.9 °C 1017.8 hPa ENE 12.2 km/h 24.1 km/h 58% 0.0 mm CLR
13:44 25.1 °C 15.4 °C 1017.8 hPa NNE 12.2 km/h 22.2 km/h 55% 0.0 mm CLR
13:49 24.8 °C 15.4 °C 1017.5 hPa East 13.0 km/h 25.9 km/h 56% 0.0 mm CLR
13:54 24.8 °C 15.2 °C 1017.5 hPa ENE 13.0 km/h 14.8 km/h 55% 0.0 mm CLR
13:59 24.9 °C 14.9 °C 1017.5 hPa ENE 13.0 km/h 27.8 km/h 54% 0.0 mm CLR
14:04 25.1 °C 15.1 °C 1017.6 hPa East 13.0 km/h 29.6 km/h 54% 0.0 mm CLR
14:09 25.1 °C 15.1 °C 1017.6 hPa ESE 14.0 km/h 16.1 km/h 54% 0.0 mm CLR
14:14 24.9 °C 15.5 °C 1017.6 hPa ENE 14.0 km/h 18.5 km/h 56% 0.0 mm CLR
14:19 25.0 °C 15.6 °C 1017.3 hPa NNE 14.0 km/h 22.2 km/h 56% 0.0 mm CLR
14:24 24.7 °C 15.3 °C 1017.3 hPa East 14.0 km/h 22.2 km/h 56% 0.0 mm CLR
14:29 24.8 °C 15.4 °C 1017.3 hPa NNE 14.8 km/h 22.2 km/h 56% 0.0 mm CLR
14:34 24.8 °C 15.7 °C 1017.2 hPa NE 14.8 km/h 17.2 km/h 57% 0.0 mm CLR
14:39 24.8 °C 15.7 °C 1017.2 hPa NE 13.7 km/h 20.4 km/h 57% 0.0 mm CLR
14:44 24.7 °C 15.6 °C 1017.2 hPa ENE 13.7 km/h 24.1 km/h 57% 0.0 mm CLR
14:49 24.8 °C 16.0 °C 1017.0 hPa NNE 13.7 km/h 24.1 km/h 58% 0.0 mm CLR
14:54 24.7 °C 15.9 °C 1017.0 hPa NE 13.7 km/h 25.9 km/h 58% 0.0 mm CLR
14:59 24.4 °C 15.9 °C 1017.0 hPa ENE 15.6 km/h 18.0 km/h 59% 0.0 mm CLR
15:04 24.4 °C 15.9 °C 1016.8 hPa North 15.6 km/h 20.4 km/h 59% 0.0 mm CLR
15:09 24.4 °C 15.6 °C 1016.8 hPa East 12.2 km/h 24.1 km/h 58% 0.0 mm CLR
15:14 24.4 °C 15.6 °C 1016.8 hPa NE 12.2 km/h 24.1 km/h 58% 0.0 mm CLR
15:19 24.3 °C 15.8 °C 1016.7 hPa East 13.0 km/h 20.4 km/h 59% 0.0 mm CLR
15:24 24.3 °C 16.1 °C 1016.7 hPa NE 13.0 km/h 22.2 km/h 60% 0.0 mm CLR
15:29 24.2 °C 15.9 °C 1016.7 hPa ENE 14.0 km/h 18.5 km/h 60% 0.0 mm CLR
15:34 24.2 °C 15.7 °C 1016.9 hPa NE 14.0 km/h 25.9 km/h 59% 0.0 mm CLR
15:39 24.2 °C 15.9 °C 1016.9 hPa ENE 14.0 km/h 18.3 km/h 60% 0.0 mm CLR
15:44 24.1 °C 15.6 °C 1016.9 hPa East 14.0 km/h 20.9 km/h 59% 0.0 mm CLR
15:49 24.0 °C 15.5 °C 1017.3 hPa East 12.2 km/h 22.2 km/h 59% 0.0 mm CLR
15:54 24.1 °C 16.1 °C 1017.3 hPa NNE 12.2 km/h 18.5 km/h 61% 0.0 mm CLR
15:59 24.0 °C 16.0 °C 1017.3 hPa NE 12.2 km/h 18.5 km/h 61% 0.0 mm CLR
16:04 23.9 °C 15.7 °C 1016.8 hPa NNE 12.2 km/h 24.1 km/h 60% 0.0 mm CLR
16:09 23.8 °C 16.1 °C 1016.8 hPa NE 13.7 km/h 16.7 km/h 62% 0.0 mm CLR
16:14 23.8 °C 16.1 °C 1016.8 hPa NE 13.7 km/h 21.7 km/h 62% 0.0 mm CLR
16:19 23.7 °C 15.7 °C 1016.8 hPa NE 13.7 km/h 21.7 km/h 61% 0.0 mm CLR
16:24 23.7 °C 15.7 °C 1016.8 hPa NNE 13.7 km/h 16.7 km/h 61% 0.0 mm CLR
16:29 23.8 °C 15.8 °C 1016.8 hPa NE 11.1 km/h 18.5 km/h 61% 0.0 mm CLR
16:34 23.4 °C 15.4 °C 1016.6 hPa NE 11.1 km/h 27.8 km/h 61% 0.0 mm CLR
16:39 23.5 °C 15.8 °C 1016.6 hPa NE 15.6 km/h 22.0 km/h 62% 0.0 mm CLR
16:44 23.3 °C 16.1 °C 1016.6 hPa ENE 15.6 km/h 29.6 km/h 64% 0.0 mm CLR
16:49 23.4 °C 15.9 °C 1016.6 hPa East 16.1 km/h 27.8 km/h 63% 0.0 mm CLR
16:54 23.4 °C 15.9 °C 1016.6 hPa NNE 16.1 km/h 18.5 km/h 63% 0.0 mm CLR
16:59 23.4 °C 16.2 °C 1016.6 hPa North 12.2 km/h 20.4 km/h 64% 0.0 mm CLR
17:04 23.4 °C 16.2 °C 1016.7 hPa SE 12.2 km/h 18.5 km/h 64% 0.0 mm CLR
17:09 23.5 °C 16.1 °C 1016.7 hPa NE 13.7 km/h 16.7 km/h 63% 0.0 mm CLR
17:14 23.5 °C 15.8 °C 1016.7 hPa NE 13.7 km/h 18.5 km/h 62% 0.0 mm CLR
17:19 23.6 °C 15.9 °C 1016.5 hPa ENE 13.7 km/h 20.4 km/h 62% 0.0 mm CLR
17:24 23.8 °C 16.1 °C 1016.5 hPa NNE 13.7 km/h 16.7 km/h 62% 0.0 mm CLR
17:29 23.9 °C 16.2 °C 1016.5 hPa East 11.1 km/h 13.0 km/h 62% 0.0 mm CLR
17:34 23.7 °C 16.0 °C 1016.6 hPa NE 11.1 km/h 20.4 km/h 62% 0.0 mm CLR
17:39 23.6 °C 16.2 °C 1016.6 hPa North 13.0 km/h 16.7 km/h 63% 0.0 mm CLR
17:44 23.8 °C 15.8 °C 1016.6 hPa NNE 13.0 km/h 20.4 km/h 61% 0.0 mm CLR
17:49 23.8 °C 16.1 °C 1016.6 hPa NE 11.9 km/h 20.4 km/h 62% 0.0 mm CLR
17:54 24.0 °C 16.0 °C 1016.6 hPa NE 11.9 km/h 20.4 km/h 61% 0.0 mm CLR
17:59 24.1 °C 16.1 °C 1016.6 hPa East 11.1 km/h 18.3 km/h 61% 0.0 mm CLR
18:04 24.1 °C 15.8 °C 1016.4 hPa NE 11.1 km/h 20.4 km/h 60% 0.0 mm CLR
18:09 24.1 °C 16.1 °C 1016.4 hPa NE 11.9 km/h 18.5 km/h 61% 0.0 mm CLR
18:14 23.9 °C 15.7 °C 1016.4 hPa ENE 11.9 km/h 16.7 km/h 60% 0.0 mm CLR
18:19 23.6 °C 15.9 °C 1016.3 hPa NE 11.1 km/h 16.7 km/h 62% 0.0 mm CLR
18:24 23.5 °C 15.8 °C 1016.3 hPa NE 11.1 km/h 21.7 km/h 62% 0.0 mm CLR
18:29 23.5 °C 15.0 °C 1016.3 hPa North 11.9 km/h 20.4 km/h 59% 0.0 mm CLR
18:34 23.4 °C 15.4 °C 1016.2 hPa NE 11.9 km/h 19.8 km/h 61% 0.0 mm CLR
18:39 23.3 °C 15.3 °C 1016.2 hPa NE 13.0 km/h 18.5 km/h 61% 0.0 mm CLR
18:44 23.2 °C 15.3 °C 1016.2 hPa NNE 13.0 km/h 13.0 km/h 61% 0.0 mm CLR
18:49 23.2 °C 15.8 °C 1016.5 hPa NE 10.3 km/h 16.7 km/h 63% 0.0 mm CLR
18:54 23.2 °C 15.5 °C 1016.5 hPa ESE 10.3 km/h 14.8 km/h 62% 0.0 mm CLR
18:59 23.3 °C 15.6 °C 1016.5 hPa NE 10.0 km/h 15.6 km/h 62% 0.0 mm CLR
19:04 23.4 °C 15.4 °C 1016.5 hPa ENE 10.0 km/h 16.4 km/h 61% 0.0 mm CLR
19:09 23.3 °C 15.6 °C 1016.5 hPa East 10.3 km/h 14.8 km/h 62% 0.0 mm CLR
19:14 23.2 °C 15.3 °C 1016.5 hPa NNE 10.3 km/h 14.8 km/h 61% 0.0 mm CLR
19:19 23.2 °C 15.5 °C 1016.2 hPa NE 11.9 km/h 16.7 km/h 62% 0.0 mm CLR
19:24 23.3 °C 15.6 °C 1016.2 hPa NE 11.9 km/h 11.1 km/h 62% 0.0 mm CLR
19:29 23.2 °C 15.8 °C 1016.2 hPa ENE 10.0 km/h 14.8 km/h 63% 0.0 mm CLR
19:34 23.2 °C 15.8 °C 1016.2 hPa SE 10.0 km/h 9.3 km/h 63% 0.0 mm CLR
19:39 23.2 °C 16.0 °C 1016.2 hPa NE 7.6 km/h 14.8 km/h 64% 0.0 mm CLR
19:44 23.1 °C 15.9 °C 1016.2 hPa SE 7.6 km/h 14.0 km/h 64% 0.0 mm CLR
19:49 22.9 °C 15.7 °C 1016.2 hPa NE 10.0 km/h 11.1 km/h 64% 0.0 mm CLR
19:54 22.9 °C 15.7 °C 1016.2 hPa East 10.0 km/h 13.0 km/h 64% 0.0 mm CLR
19:59 22.8 °C 15.9 °C 1016.2 hPa ENE 10.0 km/h 11.1 km/h 65% 0.0 mm CLR
20:04 22.8 °C 15.9 °C 1016.1 hPa ENE 10.0 km/h 12.2 km/h 65% 0.0 mm CLR
20:09 22.7 °C 15.8 °C 1016.1 hPa East 8.4 km/h 9.3 km/h 65% 0.0 mm CLR
20:14 22.7 °C 15.8 °C 1016.1 hPa East 8.4 km/h 9.3 km/h 65% 0.0 mm CLR
20:19 22.8 °C 16.1 °C 1016.0 hPa ESE 7.6 km/h 9.3 km/h 66% 0.0 mm CLR
20:24 22.8 °C 16.1 °C 1016.0 hPa NNE 7.6 km/h 14.0 km/h 66% 0.0 mm CLR
20:29 22.7 °C 16.0 °C 1016.0 hPa ENE 7.6 km/h 14.8 km/h 66% 0.0 mm CLR
20:34 22.7 °C 16.0 °C 1016.0 hPa East 7.6 km/h 11.1 km/h 66% 0.0 mm CLR
20:39 22.6 °C 16.2 °C 1016.0 hPa East 9.5 km/h 11.1 km/h 67% 0.0 mm CLR
20:44 22.6 °C 16.2 °C 1016.0 hPa East 9.5 km/h 9.3 km/h 67% 0.0 mm CLR
20:49 22.6 °C 16.2 °C 1016.2 hPa ENE 5.8 km/h 9.3 km/h 67% 0.0 mm CLR
20:54 22.6 °C 16.2 °C 1016.2 hPa NNE 5.8 km/h 3.7 km/h 67% 0.0 mm CLR
20:59 22.5 °C 15.8 °C 1016.2 hPa NE 5.0 km/h 10.0 km/h 66% 0.0 mm CLR
21:04 22.4 °C 15.7 °C 1016.4 hPa NNE 5.0 km/h 9.3 km/h 66% 0.0 mm CLR
21:09 22.4 °C 15.5 °C 1016.4 hPa NNE 6.4 km/h 7.6 km/h 65% 0.0 mm CLR
21:14 22.3 °C 15.4 °C 1016.4 hPa NE 6.4 km/h 11.9 km/h 65% 0.0 mm CLR
21:19 22.3 °C 15.7 °C 1016.6 hPa ENE 7.6 km/h 9.3 km/h 66% 0.0 mm CLR
21:24 22.2 °C 15.8 °C 1016.6 hPa East 7.6 km/h 9.3 km/h 67% 0.0 mm CLR
21:29 22.2 °C 15.8 °C 1016.6 hPa NE 6.4 km/h 7.4 km/h 67% 0.0 mm CLR
21:34 22.1 °C 15.7 °C 1016.6 hPa NE 6.4 km/h 7.4 km/h 67% 0.0 mm CLR
21:39 22.1 °C 15.7 °C 1016.6 hPa ENE 5.0 km/h 8.4 km/h 67% 0.0 mm CLR
21:44 22.1 °C 15.7 °C 1016.6 hPa NE 5.0 km/h 7.4 km/h 67% 0.0 mm CLR
21:49 22.1 °C 15.9 °C 1016.6 hPa NE 5.0 km/h 7.4 km/h 68% 0.0 mm CLR
21:54 22.0 °C 15.8 °C 1016.6 hPa ENE 5.0 km/h 7.4 km/h 68% 0.0 mm CLR
21:59 21.9 °C 15.7 °C 1016.6 hPa NE 4.7 km/h 7.6 km/h 68% 0.0 mm CLR
22:04 21.9 °C 15.9 °C 1016.7 hPa NE 4.7 km/h 9.3 km/h 69% 0.0 mm CLR
22:09 21.8 °C 15.8 °C 1016.7 hPa NNE 5.8 km/h 9.3 km/h 69% 0.0 mm CLR
22:14 21.7 °C 16.0 °C 1016.7 hPa ENE 5.8 km/h 7.4 km/h 70% 0.0 mm CLR
22:19 21.7 °C 16.0 °C 1016.8 hPa ENE 5.8 km/h 5.6 km/h 70% 0.0 mm CLR
22:24 21.6 °C 15.9 °C 1016.8 hPa NE 5.8 km/h 6.4 km/h 70% 0.0 mm CLR
22:29 21.6 °C 16.1 °C 1016.8 hPa NNE 4.7 km/h 7.4 km/h 71% 0.0 mm CLR
22:34 21.6 °C 16.1 °C 1016.8 hPa NE 4.7 km/h 7.6 km/h 71% 0.0 mm CLR
22:39 21.5 °C 16.0 °C 1016.8 hPa ENE 5.0 km/h 7.4 km/h 71% 0.0 mm CLR
22:44 21.4 °C 16.2 °C 1016.8 hPa NNE 5.0 km/h 4.7 km/h 72% 0.0 mm CLR
22:49 21.4 °C 16.2 °C 1016.9 hPa NE 3.9 km/h 7.4 km/h 72% 0.0 mm CLR
22:54 21.4 °C 16.2 °C 1016.9 hPa ENE 3.9 km/h 7.4 km/h 72% 0.0 mm CLR
22:59 21.3 °C 16.3 °C 1016.9 hPa East 3.9 km/h 7.4 km/h 73% 0.0 mm CLR
23:04 21.2 °C 16.2 °C 1016.9 hPa ENE 3.9 km/h 7.4 km/h 73% 0.0 mm CLR
23:09 21.2 °C 16.2 °C 1016.9 hPa ENE 4.7 km/h 5.6 km/h 73% 0.0 mm CLR
23:14 21.2 °C 16.2 °C 1016.9 hPa ESE 4.7 km/h 7.4 km/h 73% 0.0 mm CLR
23:19 21.1 °C 16.1 °C 1016.9 hPa ESE 3.9 km/h 7.4 km/h 73% 0.0 mm CLR
23:24 21.0 °C 15.8 °C 1016.9 hPa ESE 3.9 km/h 1.9 km/h 72% 0.0 mm CLR
23:29 20.9 °C 15.7 °C 1016.9 hPa ESE 2.3 km/h   72% 0.0 mm CLR
23:34 20.9 °C 15.4 °C 1017.0 hPa ESE 2.3 km/h 5.6 km/h 71% 0.0 mm CLR
23:39 20.9 °C 15.2 °C 1017.0 hPa ESE 2.3 km/h 5.8 km/h 70% 0.0 mm CLR
23:44 20.9 °C 15.2 °C 1017.0 hPa ESE 2.3 km/h 5.6 km/h 70% 0.0 mm CLR
23:49 20.8 °C 15.1 °C 1017.0 hPa SE 3.9 km/h 5.8 km/h 70% 0.0 mm CLR
23:54 20.8 °C 15.1 °C 1017.0 hPa SE 3.9 km/h 5.6 km/h 70% 0.0 mm CLR
23:59 20.8 °C 15.1 °C 1017.0 hPa East 2.9 km/h 3.7 km/h 70% 0.0 mm CLR
Murcia-Puente Tocinos, España
Compliments of Weather Underground - 2.75 mb

La estación de MeteoMurcia.com, publica sus datos en los siguientes proyectos:

Weather Underground PWS IMURCIAP2 Meteoclimatic www.awekas.at

W3Counter
Web Analytics